This is the latest recevied weather packets stored in our database for station/object APPOWX. If no packets are shown the sender has not sent any weather packets the latest 10 day(s).
| Time | Temp. | Humidity | Pressure | Rain* | Wind** | Luminosity | Snow |
|---|---|---|---|---|---|---|---|
| 1777229694 | 13.33° C | 80% | 1020.6 hPa | 0 mm | - | - | - |
| 1777229634 | 12.22° C | 81% | 1020.6 hPa | 0 mm | - | - | - |
| 1777229574 | 12.78° C | 82% | 1020.4 hPa | 0 mm | - | - | - |
| 1777229514 | 12.78° C | 80% | 1020.6 hPa | 0 mm | - | - | - |
| 1777229454 | 12.78° C | 79% | 1020.5 hPa | 0 mm | - | - | - |
| 1777229394 | 13.33° C | 80% | 1020.5 hPa | 0 mm | - | - | - |
| 1777229333 | 13.33° C | 80% | 1020.5 hPa | 0 mm | - | - | - |
| 1777229274 | 13.33° C | 79% | 1020.7 hPa | 0 mm | - | - | - |
| 1777229213 | 13.33° C | 80% | 1020.6 hPa | 0 mm | - | - | - |
| 1777229153 | 12.78° C | 80% | 1020.3 hPa | 0 mm | - | - | - |
| 1777229094 | 13.33° C | 80% | 1020.6 hPa | 0 mm | - | - | - |
| 1777229033 | 12.78° C | 80% | 1020.6 hPa | 0 mm | - | - | - |
| 1777228974 | 12.78° C | 80% | 1020.6 hPa | 0 mm | - | - | - |
| 1777228914 | 13.33° C | 79% | 1020.4 hPa | 0 mm | - | - | - |
| 1777228853 | 12.78° C | 79% | 1020.3 hPa | 0 mm | - | - | - |
| 1777228793 | 12.78° C | 79% | 1020.5 hPa | 0 mm | - | - | - |
| 1777228733 | 12.78° C | 77% | 1020.6 hPa | 0 mm | - | - | - |
| 1777228673 | 12.78° C | 77% | 1020.6 hPa | 0 mm | - | - | - |
| 1777228613 | 12.78° C | 78% | 1020.4 hPa | 0 mm | - | - | - |
| 1777228552 | 13.33° C | 79% | 1020.6 hPa | 0 mm | - | - | - |
| 1777228492 | 13.33° C | 79% | 1020.4 hPa | 0 mm | - | - | - |
| 1777228433 | 13.33° C | 76% | 1020.5 hPa | 0 mm | - | - | - |
| 1777228372 | 12.78° C | 78% | 1020.5 hPa | 0 mm | - | - | - |
| 1777228312 | 12.78° C | 80% | 1020.4 hPa | 0 mm | - | - | - |
| 1777228252 | 13.33° C | 81% | 1020.2 hPa | 0 mm | - | - | - |
* Rain latest hour (hover to see other rain measurements)
** Current wind speed in m/s (hover to see current wind gust speed)